Indianapolis Mount Comfort, IN

6:08 AM EST on December 13, 2019 (GMT -0500)
Mount Comfort

Weather History for KMQJ - November, 2019

Change the Weather History Date:

Tuesday, November 19, 2019

  Actual Average (WUND) Record (WUND)
Temperature  
Mean Temperature 35 °F -  
Max Temperature 44 °F - - (-1)
Min Temperature 26 °F - - (-1)
Degree Days  
Heating Degree Days 30    
Moisture  
Dew Point 38 °F    
Average Humidity 99    
Maximum Humidity 100    
Minimum Humidity 93    
Precipitation  
Precipitation 0.00 in - - ()
Sea Level Pressure  
Sea Level Pressure 29.83 in    
Wind  
Wind Speed 3 mph ()    
Max Wind Speed 8 mph    
Max Gust Speed -    
Visibility 4.1 miles    
Events      
Averages and records for this station are not official NWS values.
T = Trace of Precipitation, MM = Missing Value Source: Averaged Metar Reports

Daily Weather History Graph

Daily Weather History Graph

Search for Another Location

Airport or City:

Astronomy

Nov. 19, 2019 Rise Set
Actual Time 7:32 AM EST 5:24 PM EST
Civil Twilight 7:03 AM EST 5:54 PM EST
Nautical Twilight 6:30 AM EST 6:26 PM EST
Astronomical Twilight 5:58 AM EST 6:59 PM EST
Moon No Moon Rise 1:42 PM EST (11/19)
Length of Visible Light 10h 50m
Length of Day
9h 52m
Waning Gibbous, 52% of the Moon is Illuminated
Nov 19
Waning Gibbous
Nov 19
Last Quarter
Nov 26
New
Dec 4
First Quarter
Dec 12
Full

Hourly Weather History & Observations

Time (EST) Temp. Windchill Dew Point Humidity Pressure Visibility Wind Dir Wind Speed Gust Speed Precip Events Conditions
12:15 AM 35.6 °F 32.8 °F 35.6 °F 100% 29.79 in 4.0 mi SW 3.5 mph - N/A   Overcast
12:35 AM 35.6 °F - 35.6 °F 100% 29.79 in 4.0 mi Calm Calm - N/A   Overcast
12:55 AM 35.6 °F 32.8 °F 35.6 °F 100% 29.79 in 4.0 mi South 3.5 mph - N/A   Overcast
1:15 AM 35.6 °F 32.8 °F 35.6 °F 100% 29.79 in 4.0 mi South 3.5 mph - N/A   Overcast
1:36 AM 35.6 °F 32.8 °F 35.6 °F 100% 29.79 in 3.0 mi South 3.5 mph - N/A   Overcast
1:55 AM 35.6 °F 32.8 °F 35.6 °F 100% 29.79 in 3.0 mi South 3.5 mph - N/A   Overcast
2:15 AM 35.6 °F 32.8 °F 35.6 °F 100% 29.79 in 4.0 mi South 3.5 mph - N/A   Overcast
2:35 AM 33.8 °F 30.8 °F 33.8 °F 100% 29.79 in 3.0 mi South 3.5 mph - N/A   Mostly Cloudy
2:55 AM 33.8 °F 30.8 °F 33.8 °F 100% 29.79 in 3.0 mi SE 3.5 mph - N/A   Mostly Cloudy
3:16 AM 33.8 °F 30.8 °F 33.8 °F 100% 29.79 in 3.0 mi SSE 3.5 mph - N/A   Mostly Cloudy
3:36 AM 33.8 °F - 33.8 °F 100% 29.79 in 3.0 mi Calm Calm - N/A   Mostly Cloudy
3:55 AM 32.0 °F 28.7 °F 32.0 °F 100% 29.78 in 2.5 mi SE 3.5 mph - N/A   Scattered Clouds
4:16 AM 32.0 °F 28.7 °F 32.0 °F 100% 29.77 in 1.8 mi SSE 3.5 mph - N/A   Unknown
4:35 AM 32.0 °F 28.7 °F 32.0 °F 100% 29.77 in 1.8 mi SSE 3.5 mph - N/A   Unknown
4:55 AM 32.0 °F 28.7 °F 32.0 °F 100% 29.77 in 0.8 mi SSE 3.5 mph - N/A   Overcast
5:16 AM 32.0 °F 27.5 °F 32.0 °F 100% 29.77 in 0.2 mi SE 4.6 mph - N/A   Overcast
5:35 AM 32.0 °F 28.7 °F 32.0 °F 100% 29.77 in 0.2 mi SSE 3.5 mph - N/A   Overcast
5:55 AM 32.0 °F 28.7 °F 32.0 °F 100% 29.77 in 0.2 mi SE 3.5 mph - N/A   Overcast
6:15 AM 32.0 °F - 32.0 °F 100% 29.78 in 0.2 mi Calm Calm - N/A   Overcast
6:36 AM 30.2 °F - 30.2 °F 100% 29.78 in 0.2 mi Calm Calm - N/A   Overcast
6:55 AM 30.2 °F - 30.2 °F 100% 29.78 in 0.2 mi Calm Calm - N/A   Overcast
7:15 AM 28.4 °F 24.6 °F 28.4 °F 100% 29.78 in 0.2 mi ESE 3.5 mph - N/A   Overcast
7:36 AM 28.4 °F 24.6 °F 28.4 °F 100% 29.78 in 0.2 mi East 3.5 mph - N/A   Overcast
7:55 AM 26.6 °F 22.6 °F 26.6 °F 100% 29.79 in 0.2 mi East 3.5 mph - N/A   Overcast
8:16 AM 28.4 °F - 28.4 °F 100% 29.79 in 0.2 mi Calm Calm - N/A   Overcast
8:36 AM 30.2 °F - 30.2 °F 100% 29.79 in 0.5 mi Calm Calm - N/A   Overcast
8:55 AM 32.0 °F 27.5 °F 32.0 °F 100% 29.79 in 1.2 mi ESE 4.6 mph - N/A   Overcast
9:16 AM 33.8 °F 29.6 °F 33.8 °F 100% 29.79 in 3.0 mi SE 4.6 mph - N/A   Scattered Clouds
9:36 AM 35.6 °F 31.7 °F 35.6 °F 100% 29.80 in 5.0 mi SE 4.6 mph - N/A   Clear
9:55 AM 37.4 °F 31.4 °F 37.4 °F 100% 29.80 in 7.0 mi SE 8.1 mph - N/A   Clear
10:16 AM 39.2 °F 35.9 °F 39.2 °F 100% 29.80 in 10.0 mi SSE 4.6 mph - N/A   Clear
10:36 AM 41.0 °F 36.4 °F 41.0 °F 100% 29.80 in 10.0 mi SE 6.9 mph - N/A   Clear
10:56 AM 41.0 °F 36.4 °F 39.2 °F 93% 29.81 in 7.0 mi SSE 6.9 mph - N/A   Clear
11:15 AM 41.0 °F 37.1 °F 39.2 °F 93% 29.81 in 10.0 mi South 5.8 mph - N/A   Clear
11:35 AM 42.8 °F 39.3 °F 41.0 °F 93% 29.81 in 10.0 mi South 5.8 mph - N/A   Clear
11:55 AM 42.8 °F 40.1 °F 41.0 °F 93% 29.81 in 10.0 mi South 4.6 mph - N/A   Clear
12:15 PM 42.8 °F 40.1 °F 41.0 °F 93% 29.81 in 10.0 mi SSE 4.6 mph - N/A   Clear
12:36 PM 42.8 °F 40.1 °F 41.0 °F 93% 29.81 in 10.0 mi South 4.6 mph - N/A   Scattered Clouds
12:55 PM 42.8 °F 41.1 °F 41.0 °F 93% 29.80 in 7.0 mi SE 3.5 mph - N/A   Overcast
1:16 PM 42.8 °F 41.1 °F 42.8 °F 100% 29.80 in 5.0 mi South 3.5 mph - N/A   Overcast
1:35 PM 42.8 °F - 42.8 °F 100% 29.80 in 5.0 mi Calm Calm - N/A   Overcast
1:55 PM 42.8 °F 41.1 °F 42.8 °F 100% 29.79 in 5.0 mi ESE 3.5 mph - N/A   Overcast
2:16 PM 44.6 °F 41.4 °F 44.6 °F 100% 29.79 in 7.0 mi East 5.8 mph - N/A   Overcast
2:35 PM 44.6 °F 41.4 °F 44.6 °F 100% 29.79 in 7.0 mi ESE 5.8 mph - N/A   Scattered Clouds
2:55 PM 44.6 °F 42.2 °F 44.6 °F 100% 29.80 in 7.0 mi SSE 4.6 mph - N/A   Clear
3:15 PM 44.6 °F 42.2 °F 44.6 °F 100% 29.80 in 7.0 mi SE 4.6 mph - N/A   Scattered Clouds
3:35 PM 44.6 °F 42.2 °F 44.6 °F 100% 29.81 in 7.0 mi SE 4.6 mph - N/A   Clear
3:55 PM 44.6 °F 43.1 °F 44.6 °F 100% 29.82 in 7.0 mi South 3.5 mph - N/A   Scattered Clouds
4:15 PM 44.6 °F 42.2 °F 44.6 °F 100% 29.82 in 7.0 mi SSE 4.6 mph - N/A   Mostly Cloudy
4:36 PM 44.6 °F 43.1 °F 44.6 °F 100% 29.84 in 7.0 mi South 3.5 mph - N/A   Mostly Cloudy
4:55 PM 44.6 °F - 44.6 °F 100% 29.85 in 7.0 mi Calm Calm - N/A   Overcast
5:16 PM 42.8 °F 41.1 °F 42.8 °F 100% 29.86 in 7.0 mi South 3.5 mph - N/A   Overcast
5:36 PM 42.8 °F 40.1 °F 42.8 °F 100% 29.87 in 7.0 mi SSW 4.6 mph - N/A   Overcast
5:55 PM 42.8 °F 41.1 °F 42.8 °F 100% 29.88 in 7.0 mi SW 3.5 mph - N/A   Overcast
6:16 PM 42.8 °F 41.1 °F 42.8 °F 100% 29.89 in 7.0 mi South 3.5 mph - N/A   Overcast
6:56 PM 42.8 °F - 42.8 °F 100% 29.89 in 2.5 mi Calm Calm - N/A   Overcast
7:16 PM 41.0 °F - 41.0 °F 100% 29.90 in 2.5 mi Calm Calm - N/A   Overcast
7:36 PM 41.0 °F 39.0 °F 41.0 °F 100% 29.91 in 3.0 mi SSW 3.5 mph - N/A   Overcast
7:56 PM 41.0 °F - 41.0 °F 100% 29.92 in 3.0 mi Calm Calm - N/A   Overcast
8:16 PM 41.0 °F 39.0 °F 41.0 °F 100% 29.92 in 3.0 mi SSW 3.5 mph - N/A   Overcast
8:35 PM 41.0 °F 39.0 °F 41.0 °F 100% 29.93 in 3.0 mi SW 3.5 mph - N/A   Overcast
8:55 PM 41.0 °F - 41.0 °F 100% 29.93 in 2.5 mi Calm Calm - N/A   Overcast
9:16 PM 41.0 °F - 41.0 °F 100% 29.94 in 2.5 mi Calm Calm - N/A   Overcast
9:36 PM 41.0 °F - 41.0 °F 100% 29.94 in 2.0 mi Calm Calm - N/A   Overcast
9:56 PM 41.0 °F - 41.0 °F 100% 29.94 in 2.5 mi Calm Calm - N/A   Overcast
10:15 PM 41.0 °F 38.0 °F 41.0 °F 100% 29.96 in 2.5 mi WNW 4.6 mph - N/A   Overcast
10:36 PM 42.8 °F 39.3 °F 42.8 °F 100% 29.96 in 2.5 mi NW 5.8 mph - N/A   Overcast
10:56 PM 41.0 °F 38.0 °F 41.0 °F 100% 29.96 in 1.5 mi NW 4.6 mph - N/A   Overcast
11:15 PM 41.0 °F 39.0 °F 41.0 °F 100% 29.96 in 1.5 mi North 3.5 mph - N/A   Overcast
11:35 PM 41.0 °F 39.0 °F 41.0 °F 100% 29.96 in 1.2 mi NNW 3.5 mph - N/A   Overcast
11:56 PM 41.0 °F - 41.0 °F 100% 29.97 in 0.8 mi Calm Calm - N/A   Overcast